Weather in Sytniaky

Ukraine / Kyiv Region     50°24′51″N   29°41′57″E
temp.,
°C
wind,
m/s
gust,
m/s
humid.,
%
clouds,
%
prec.,
mm/h
press.,
hPa
HPBL,
m
9 march, tue
tue923:00−4nw38780 0.0 1016407
02:00−4nw47810 0.0 1018454
05:00−6nw36920 0.0 1019278
08:00−5nnw358628 0.0 1020520
11:00−3nnw4566100 0.1 10211094
14:00−2nnw3457100 0.1 10221274
17:00−3nnw2462100 0.0 1023760
20:00−4nne227195 0.0 102429
10 march, wed
wed1023:00−5e247596 0.0 1025168
02:00−6ese227891 0.0 102661
05:00−6sse238973 0.0 102671
08:00−5sse358385 0.0 1026290
11:00−3sse3463100 0.0 1026720
14:00−1sse335495 0.0 10251025
17:00−2s336463 0.0 1024555
20:00−4sse247731 0.0 1025116
11 march, thu
thu1123:00−5sse248124 0.0 1026134
02:00−5se228213 0.0 102653
05:00−6se238341 0.0 102689
08:00−5se247444 0.0 1027252
11:00−3se345427 0.0 1027759
14:00−1sse344313 0.0 10271166
17:00−2s35540 0.0 1025781
20:00−4sse48670 0.0 1026445
12 march, fri
fri1223:00−4sse5107246 0.0 1026605
02:00−4sse6126363 0.0 1024551
05:00−4s81457100 0.0 1021552
08:00−2s101655100 0.0 1019775
11:000s111655100 0.0 10181072
14:00+1s111772100 0.3 10171278
17:000ssw101696100 1.2 1015862
20:00+1ssw61198100 2.6 1015463
13 march, sat
sat1323:00+1sw6119498 0.0 1016434
02:00+1sw5109499 0.0 1016337
05:00−1sw379560 0.0 1017161
08:00+1ssw489433 0.0 1017299
11:00+4ssw588871 0.0 1017534
14:00+5s688286 0.0 1016663
17:00+3s4892100 0.0 1015307
20:00+2s4897100 0.1 1015225